Regional Weather Roundup
Issued by NWS

Home | Current Version | Previous Version | Text Only | Print | Product List | Glossary Off
Versions: 1 2 3 4 5 6 7 8 9 10 11 12 13 14 15 16 17 18 19 20 21 22 23 24 25 26 27 28 29 30 31 32 33 34 35 36 37 38 39 40 41 42 43 44 45 46 47 48 49 50

000
ASUS43 KLSX 241559
RWRMO

WEATHER SUMMARY FOR MISSOURI
NATIONAL WEATHER SERVICE SPRINGFIELD MO
1000 AM CST MON NOV 24 2014

NOTE: "FAIR" INDICATES FEW OR NO CLOUDS BELOW 12,000 FEET WITH NO
       SIGNIFICANT WEATHER AND/OR OBSTRUCTIONS TO VISIBILITY.
       CURRENT SKY AND/OR WEATHER CONDITIONS ARE NOT AVAILABLE FOR
       CHILLICOTHE AND FARMINGTON.

MOZ001>031-035>038-043-044-053-054-241700-
...NORTHERN AND WESTERN MISSOURI...

CITY           SKY/WX    TMP DP  RH WIND       PRES   REMARKS
KANSAS CTY INT CLOUDY    34  25  69 W17       29.72R WCI  23
KANSAS C DTWN  CLOUDY    37  24  59 W16       29.73R WCI  28
LEE`S SUMMIT   CLOUDY    37  24  59 W17G25    29.73R WCI  27
ST JOSEPH      CLOUDY    33  24  69 NW10      29.73R WCI  25
CHILLICOTHE      N/A     33  21  61 NW16G31   29.68R WCI  23
KIRKSVILLE     CLOUDY    31  24  75 W15       29.60R WCI  20

$$
MOZ066>068-077>081-088>096-101>105-241700-
...SOUTHWEST MISSOURI...

CITY           SKY/WX    TMP DP  RH WIND       PRES   REMARKS
SPRINGFIELD    SUNNY     42  27  55 W20G31    29.79R
JOPLIN         SUNNY     43  30  60 W17       29.84R

$$
MOZ032>034-039>042-045>050-055>058-069>072-241700-
...CENTRAL MISSOURI...

CITY           SKY/WX    TMP DP  RH WIND       PRES   REMARKS
COLUMBIA       CLOUDY    36  27  69 W23G31    29.67R WCI  24
JEFFERSON CITY CLOUDY    38  28  67 W13G22    29.70R WCI  30
ROLLA          CLOUDY    37  27  67 W23       29.68R WCI  26
SEDALIA        CLOUDY    37  25  61 W17G24    29.72R WCI  27
WARRENSBURG    CLOUDY    36  25  64 W14G24    29.74R WCI  27
OSAGE BEACH    MOSUNNY   39  25  56 W16G29    29.71R

$$
MOZ051-052-059>065-241700-
...EAST CENTRAL MISSOURI...

CITY           SKY/WX    TMP DP  RH WIND       PRES   REMARKS
ST LOUIS INTL  CLOUDY    40  28  62 W18G24    29.65R
SPIRIT OF STL  CLOUDY    38  28  67 W22       29.65R WCI  27
ST CHARLES     CLOUDY    38  29  70 W18       29.63R WCI  28

$$
MOZ072>076-082>087-097>100-106>115-241700-
...SOUTH CENTRAL AND SOUTHEAST MISSOURI...

CITY           SKY/WX    TMP DP  RH WIND       PRES   REMARKS
CAPE GIRARDEAU CLOUDY    47  38  71 W17G25    29.73R
FARMINGTON     CLOUDY    39  28  65 SW13G25   29.71R
POPLAR BLUFF   MOSUNNY   47  29  49 W18G25    29.76R
WEST PLAINS    SUNNY     43  28  55 W18G28    29.75S

$$


USA.gov is the U.S. government's official web portal to all federal, state and local government web resources and services.